cover

 

Get it on iTunes StoreListen on Apple Music

Flower Power

#Trackname / Key / BPM / Publish dateArtists, Remixers / Label
1 125 bpm, 12A / Db minor, 2018-11-09, Progressive House,  1  1
2 124 bpm, 8A / A minor, 2018-11-02, Tech House,  2  21
3 125 bpm, 5B / Eb major, 2018-11-02, Minimal,  0  21
4 125 bpm, 7A / D minor, 2018-11-02, Tech House,  0  21
5 126 bpm, 5A / C minor, 2018-11-02, Electronica,  0  21
6 124 bpm, 7A / D minor, 2018-11-02, Tech House,  0  21
7 125 bpm, 7A / D minor, 2018-11-02, Minimal,  1  21
8 125 bpm, 12B / E major, 2018-11-02, Minimal,  0  21
9 126 bpm, 8A / A minor, 2018-11-02, Minimal,  0  21
10 123 bpm, 8A / A minor, 2018-11-02, Tech House,  0  21
11 124 bpm, 8A / A minor, 2018-11-02, Techno,  0  21
12 122 bpm, 8B / C major, 2018-11-02, Deep House,  0  21
13 120 bpm, 4A / F minor, 2018-11-02, Deep House,  0  21
14 126 bpm, 11B / A major, 2018-11-02, Tech House,  0  21
15 123 bpm, 1B / B major, 2018-11-02, Minimal,  0  21
16 125 bpm, 11A / F# minor, 2018-11-02, Minimal,  0  21
17 124 bpm, 8A / A minor, 2018-11-02, Minimal,  0  21
18 122 bpm, 8A / A minor, 2018-11-02, Tech House,  0  21
19 122 bpm, 7A / D minor, 2018-11-02, Minimal,  0  21
20 124 bpm, 8A / A minor, 2018-11-02, Tech House,  0  21
21 127 bpm, 12A / Db minor, 2018-11-02, Tech House,  0  21
22 128 bpm, 8A / A minor, 2018-11-02, Minimal,  0  21
23 93 bpm, 9A / E minor, 2018-10-22, Electronica,  0  21
24 124 bpm, 6A / G minor, 2018-10-22, Electronica,  0  21
25 127 bpm, 8B / C major, 2018-10-22, Electronica,  0  21
26 125 bpm, 10A / B minor, 2018-10-22, Electronica,  0  21
27 110 bpm, 11A / F# minor, 2018-10-22, Electronica,  0  21
28 105 bpm, 8A / A minor, 2018-10-22, Electronica,  0  21
29 123 bpm, 4B / Ab major, 2018-10-22, Electronica,  0  21
30 121 bpm, 8A / A minor, 2018-10-22, Electronica,  0  21
31 120 bpm, 5B / Eb major, 2018-10-22, Electronica,  0  21
32 119 bpm, 3A / Bb minor, 2018-10-22, Electronica,  0  21
33 127 bpm, 3B / Db major, 2018-10-22, Electronica,  0  21
34 125 bpm, 8A / A minor, 2018-10-22, Electronica,  0  21
35 122 bpm, 9A / E minor, 2018-10-22, Electronica,  0  21
36 90 bpm, 8B / C major, 2018-10-22, Electronica,  0  21
37 126 bpm, 2A / Eb minor, 2018-10-22, Electronica,  0  21
38 100 bpm, 9A / E minor, 2018-10-22, Electronica,  0  21
39 122 bpm, 8A / A minor, 2018-10-22, Electronica,  0  21
40 131 bpm, 6A / G minor, 2018-10-22, Electronica,  0  21
41 126 bpm, 12B / E major, 2018-10-22, Dance,  0  21
42 95 bpm, 11B / A major, 2018-10-22, Electronica,  0  21
43 160 bpm, 10B / D major, 2018-10-22, Electronica,  0  21
44 127 bpm, 8A / A minor, 2018-10-15, Techno,  0  21
45 130 bpm, 7B / F major, 2018-10-15, Techno,  0  21
46 130 bpm, 11A / F# minor, 2018-10-15, Techno,  0  21
47 126 bpm, 8B / C major, 2018-10-15, Techno,  0  21
48 123 bpm, 10A / B minor, 2018-10-15, Tech House,  0  21
49 127 bpm, 12B / E major, 2018-10-15, Techno,  0  21
50 128 bpm, 5A / C minor, 2018-10-15, Techno,  0  21
51 126 bpm, 8A / A minor, 2018-10-15, Techno,  0  21
52 130 bpm, 12B / E major, 2018-10-15, Techno,  0  21
53 125 bpm, 7A / D minor, 2018-10-15, Techno,  0  21
54 128 bpm, 11A / F# minor, 2018-10-15, Techno,  0  21
55 140 bpm, 8A / A minor, 2018-10-15, Techno,  0  21
56 125 bpm, 5A / C minor, 2018-10-15, Techno,  0  21
57 128 bpm, 7B / F major, 2018-10-15, Techno,  0  21
58 124 bpm, 6B / Bb major, 2018-10-15, Techno,  0  21
59 123 bpm, 2B / F# major, 2018-10-15, Techno,  0  21
60 125 bpm, 9B / G major, 2018-10-15, Techno,  0  21
61 123 bpm, 7B / F major, 2018-10-15, Tech House,  0  21
62 120 bpm, 6A / G minor, 2018-10-15, Progressive House,  0  21
63 125 bpm, 8B / C major, 2018-10-15, Tech House,  1  21
64 160 bpm, 6A / G minor, 2018-10-15, Tech House,  0  21
65 130 bpm, 9B / G major, 2018-10-05, Indie Dance / Nu Disco,  0  18
66 123 bpm, 5B / Eb major, 2018-10-05, Indie Dance / Nu Disco,  0  18
67 121 bpm, 3A / Bb minor, 2018-10-05, Indie Dance / Nu Disco,  0  18
68 115 bpm, 10B / D major, 2018-10-05, Indie Dance / Nu Disco,  1  18
69 124 bpm, 11A / F# minor, 2018-10-05, Indie Dance / Nu Disco,  0  18
70 120 bpm, 3A / Bb minor, 2018-10-05, Indie Dance / Nu Disco,  0  18
71 118 bpm, 5A / C minor, 2018-10-05, Indie Dance / Nu Disco,  0  18
72 117 bpm, 11A / F# minor, 2018-10-05, Indie Dance / Nu Disco,  0  18
73 120 bpm, 8A / A minor, 2018-10-05, Indie Dance / Nu Disco,  0  18
74 114 bpm, 9A / E minor, 2018-10-05, Indie Dance / Nu Disco,  0  18
75 117 bpm, 5B / Eb major, 2018-10-05, Indie Dance / Nu Disco,  0  18
76 128 bpm, 11B / A major, 2018-10-05, Indie Dance / Nu Disco,  0  18
77 116 bpm, 7A / D minor, 2018-10-05, Indie Dance / Nu Disco,  0  18
78 122 bpm, 12B / E major, 2018-10-05, Indie Dance / Nu Disco,  0  18
79 122 bpm, 6B / Bb major, 2018-10-05, Indie Dance / Nu Disco,  0  18
80 126 bpm, 1A / Ab minor, 2018-10-05, Indie Dance / Nu Disco,  0  18
81 123 bpm, 9A / E minor, 2018-10-05, Indie Dance / Nu Disco,  0  18
82 122 bpm, 7A / D minor, 2018-10-05, Indie Dance / Nu Disco,  0  18
83 122 bpm, 10B / D major, 2018-09-28, Tech House,  0  25
84 125 bpm, 7A / D minor, 2018-09-28, Tech House,  0  25
85 124 bpm, 7A / D minor, 2018-09-28, Tech House,  0  25
86 124 bpm, 11B / A major, 2018-09-28, Tech House,  0  25
87 123 bpm, 6B / Bb major, 2018-09-28, Tech House,  0  25
88 123 bpm, 6A / G minor, 2018-09-28, Tech House,  0  25
89 123 bpm, 6B / Bb major, 2018-09-28, Tech House,  0  25
90 123 bpm, 7A / D minor, 2018-09-28, Tech House,  0  25
91 124 bpm, 8A / A minor, 2018-09-28, Tech House,  0  25
92 124 bpm, 8A / A minor, 2018-09-28, Tech House,  0  25
93 123 bpm, 8A / A minor, 2018-09-28, Tech House,  0  25
94 122 bpm, 8A / A minor, 2018-09-28, Tech House,  0  25
95 125 bpm, 11A / F# minor, 2018-09-28, House,  0  25
96 123 bpm, 9A / E minor, 2018-09-28, Tech House,  0  25
97 123 bpm, 8A / A minor, 2018-09-28, Tech House,  0  25
98 122 bpm, 2A / Eb minor, 2018-09-28, Tech House,  0  25
99 125 bpm, 8A / A minor, 2018-09-28, Tech House,  0  25
100 124 bpm, 8A / A minor, 2018-09-28, Tech House,  1  25
×

Sign in

Sign in to access your personalized pages, follow artists and labels you love, and create playlists fromyour favorite tracks.

Please wait...